Orbital Elements at Epoch 2459200.5 (2020-Dec-17.0) TDB
Reference: JPL 22 (heliocentric ecliptic J2000)
Element | Value | Uncertainty (1-sigma) | Units |
e | .2172623211826188 | 1.0775e-07 | |
a | 3.131316781546584 | 5.6051e-08 | au |
q | 2.450999629229686 | 3.0838e-07 | au |
i | 16.88677361982176 | 8.4092e-06 | deg |
node | 344.6335778961889 | 1.9377e-05 | deg |
peri | 325.4957789775017 | 2.5548e-05 | deg |
M | 52.5379691169882 | 1.6943e-05 | deg |
tp | 2458905.134534801015 (2020-Feb-25.63453480) | 9.1996e-05 | TDB |
period | 2023.899462783997 5.54 | 5.4343e-05 1.488e-07 | d yr |
n | .1778744481234251 | 4.776e-09 | deg/d |
Q | 3.811633933863483 | 6.8229e-08 | au |
|
| | Orbit Determination Parameters
Additional Information
|